Terminal Aerodrome Forecast
Issued by NWS Atlanta, GA

Home | Current Version | Previous Version | Text Only | Print | Product List | Glossary On
Versions: 1 2 3 4 5 6 7 8 9 10 11 12 13 14 15 16 17 18 19 20 21 22 23 24 25 26 27 28 29 30 31 32 33 34 35 36 37 38 39 40 41 42 43 44 45 46 47 48 49 50
000
FTUS42 KFFC 202331
TAFAHN
TAF
KAHN 202331Z 2100/2124 00000KT P6SM SKC
     FM210700 VRB03KT P6SM SCT100 BKN250
     FM211100 24004KT P6SM BKN060 BKN100
     FM211500 27010KT P6SM BKN040 BKN080
     FM211700 29010G18KT P6SM BKN035 BKN080=

USA.gov is the U.S. government's official web portal to all federal, state and local government web resources and services.